DW6366 Weather Reports


Display with metric or nautical units.
time (UTC)temp
F
wind
direction
speed
MPH
gust
MPH
rain 1hr
in
rain 24hr
in
rain mn
in
humidity
%
barometer
mb
20260903215323 69 236 4.0 10.0 0.00 0.35 0.07 89 1016.1
20260903214400 69 208 5.0 11.0 0.00 0.35 0.07 89 1016.2
20260903213336 69 213 3.0 9.0 0.00 0.35 0.07 89 1016.2
20260903212329 69 234 4.0 11.0 0.00 0.35 0.07 89 1016.3
20260903211333 69 225 4.0 10.0 0.00 0.35 0.07 89 1016.2
20260903210324 69 238 3.0 6.0 0.00 0.35 0.07 89 1016.3
20260903205334 69 232 4.0 9.0 0.00 0.35 0.07 89 1016.5
20260903204354 69 196 5.0 12.0 0.00 0.35 0.07 89 1016.8
20260903203400 69 203 4.0 11.0 0.00 0.35 0.07 89 1016.8
20260903202324 69 296 7.0 12.0 0.00 0.35 0.07 89 1016.8
20260903201333 69 251 3.0 12.0 0.00 0.35 0.07 89 1016.8
20260903200326 69 306 5.0 14.0 0.00 0.35 0.07 89 1016.8
20260903195340 69 192 4.0 10.0 0.00 0.35 0.07 89 1016.8
20260903194349 69 213 5.0 14.0 0.00 0.35 0.07 88 1016.9
20260903193327 69 243 4.0 7.0 0.00 0.35 0.07 88 1016.7
20260903192322 69 234 5.0 12.0 0.00 0.35 0.07 88 1016.7
20260903191341 69 265 5.0 13.0 0.00 0.35 0.07 88 1016.8
20260903190340 69 213 5.0 14.0 0.00 0.35 0.07 88 1016.8
20260903185346 69 184 5.0 12.0 0.00 0.35 0.07 88 1017.0
20260903184330 69 192 5.0 11.0 0.00 0.35 0.07 87 1017.0
20260903183340 70 240 4.0 12.0 0.00 0.35 0.07 87 1017.0
20260903182332 70 269 3.0 7.0 0.00 0.35 0.07 86 1017.0
20260903181322 70 203 4.0 10.0 0.00 0.35 0.07 86 1016.9
20260903180322 70 218 3.0 12.0 0.00 0.35 0.07 85 1016.9
20260903175354 71 252 4.0 9.0 0.00 0.35 0.07 85 1017.1
20260903174325 71 275 5.0 11.0 0.00 0.35 0.07 84 1016.9
20260903173324 71 267 6.0 12.0 0.00 0.35 0.07 84 1017.1
20260903172351 72 252 5.0 11.0 0.00 0.35 0.07 83 1017.1
20260903171355 72 290 6.0 15.0 0.00 0.35 0.07 83 1017.3
20260903170343 72 213 8.0 16.0 0.00 0.35 0.07 82 1017.1
20260903165329 72 230 5.0 13.0 0.00 0.35 0.07 82 1017.0
20260903164338 72 259 6.0 13.0 0.00 0.35 0.07 82 1017.0
20260903163349 72 244 7.0 15.0 0.00 0.35 0.07 82 1016.9
20260903162348 73 236 5.0 17.0 0.00 0.35 0.07 81 1017.4
20260903161327 73 185 6.0 17.0 0.00 0.35 0.07 80 1017.4
20260903160346 74 290 6.0 15.0 0.00 0.35 0.07 79 1017.1
20260903155341 74 213 7.0 16.0 0.00 0.35 0.07 79 1017.1
20260903154346 74 176 3.0 20.0 0.00 0.35 0.07 79 1017.2
20260903153322 74 261 6.0 15.0 0.00 0.35 0.07 76 1017.2
20260903152321 75 191 7.0 17.0 0.00 0.35 0.07 75 1017.4
20260903151334 76 252 6.0 17.0 0.00 0.35 0.07 75 1017.3
20260903150322 75 255 9.0 17.0 0.00 0.35 0.07 74 1017.4
20260903145334 76 129 8.0 20.0 0.00 0.35 0.07 75 1017.4
20260903144338 75 178 8.0 19.0 0.00 0.35 0.07 76 1017.3
20260903143353 74 280 7.0 21.0 0.00 0.35 0.07 78 1017.3
20260903142344 74 208 7.0 19.0 0.00 0.35 0.07 76 1017.2
20260903141324 73 294 8.0 19.0 0.00 0.35 0.07 78 1017.3
20260903140339 73 286 8.0 15.0 0.00 0.35 0.07 78 1017.2
20260903135337 74 213 9.0 16.0 0.00 0.35 0.07 77 1017.2
20260903134332 75 267 5.0 19.0 0.00 0.35 0.07 75 1017.3
20260903133338 75 309 14.0 21.0 0.00 0.35 0.07 72 1017.2
20260903132331 76 187 8.0 21.0 0.00 0.35 0.07 72 1017.2
20260903131343 75 213 9.0 20.0 0.00 0.35 0.07 72 1017.0
20260903130337 74 208 9.0 21.0 0.00 0.35 0.07 75 1017.1
20260903125346 74 294 5.0 16.0 0.00 0.35 0.07 75 1017.0
20260903124348 74 263 7.0 20.0 0.00 0.35 0.07 74 1016.9
20260903123335 74 264 10.0 21.0 0.00 0.35 0.07 74 1017.0
20260903122343 75 286 12.0 20.0 0.00 0.35 0.07 75 1017.0
20260903121342 74 208 8.0 22.0 0.00 0.35 0.07 75 1016.8
20260903120347 75 296 7.0 15.0 0.00 0.35 0.07 77 1016.8
20260903115323 74 267 8.0 21.0 0.00 0.35 0.07 76 1016.8
20260903114407 75 309 9.0 17.0 0.00 0.35 0.07 75 1016.7
20260903113356 75 327 7.0 16.0 0.00 0.35 0.07 78 1016.7
20260903112324 74 292 4.0 18.0 0.00 0.35 0.07 79 1016.8
20260903111334 72 290 12.0 21.0 0.00 0.35 0.07 81 1016.8
20260903110323 71 240 6.0 19.0 0.04 0.35 0.07 84 1016.8
20260903105330 71 254 8.0 17.0 0.04 0.35 0.07 85 1016.9
20260903104344 71 232 7.0 20.0 0.04 0.35 0.07 84 1016.9
20260903103336 71 286 6.0 15.0 0.04 0.35 0.07 83 1016.7
20260903102345 71 306 9.0 19.0 0.04 0.35 0.07 83 1016.7
20260903101356 72 294 5.0 21.0 0.04 0.35 0.07 84 1016.9
20260903100328 71 285 5.0 18.0 0.00 0.31 0.06 86 1016.7
20260903095347 70 213 7.0 18.0 0.00 0.31 0.06 87 1016.6
20260903094320 70 261 8.0 19.0 0.00 0.31 0.06 88 1016.6
20260903093348 69 259 6.0 22.0 0.00 0.31 0.06 89 1016.6
20260903092355 69 255 6.0 18.0 0.00 0.31 0.06 90 1016.5
20260903091332 68 234 8.0 16.0 0.00 0.31 0.06 91 1016.7
20260903090342 68 249 6.0 15.0 0.00 0.31 0.06 93 1016.3
20260903085320 68 241 6.0 13.0 0.00 0.31 0.06 94 1016.1
20260903084339 68 279 4.0 10.0 0.00 0.31 0.06 94 1016.2
20260903083350 68 203 6.0 11.0 0.00 0.31 0.06 94 1015.9
20260903082355 67 306 5.0 13.0 0.00 0.31 0.06 94 1015.9
20260903081411 67 302 6.0 11.0 0.00 0.31 0.06 94 1016.0
20260903080330 67 237 4.0 9.0 0.00 0.31 0.06 94 1016.0
20260903075336 66 230 4.0 11.0 0.00 0.31 0.06 94 1016.1
20260903074329 66 257 5.0 11.0 0.04 0.31 0.06 94 1015.9
20260903073333 66 227 6.0 13.0 0.08 0.31 0.06 94 1016.1
20260903072343 66 257 6.0 12.0 0.12 0.31 0.06 93 1016.1
20260903071348 66 238 6.0 13.0 0.12 0.31 0.06 93 1016.1
20260903070328 66 256 5.0 12.0 0.16 0.31 0.06 93 1016.2
20260903065322 66 297 5.0 13.0 0.16 0.31 0.06 93 1016.2
20260903064326 66 225 4.0 6.0 0.16 0.28 0.06 92 1016.2
20260903063328 65 225 5.0 10.0 0.20 0.24 0.05 92 1016.1
20260903062335 65 267 3.0 8.0 0.20 0.20 0.04 91 1016.1
20260903061337 65 240 3.0 8.0 0.20 0.20 0.04 91 1016.0
20260903060351 66 228 3.0 8.0 0.16 0.16 0.03 90 1015.9
20260903055338 66 224 5.0 10.0 0.16 0.16 0.03 90 1015.9
20260903054410 66 213 6.0 10.0 0.12 0.12 0.02 89 1015.9
20260903053323 66 208 6.0 11.0 0.04 0.04 0.01 88 1015.9
20260903052338 66 208 6.0 11.0 0.00 0.00 0.00 88 1015.8
20260903051327 66 193 5.0 11.0 0.00 0.00 0.00 88 1015.8
20260903050322 66 226 5.0 14.0 0.00 0.00 0.00 88 1015.7
20260903045412 66 217 4.0 13.0 0.00 0.00 0.00 88 1015.6
20260903044333 66 230 5.0 11.0 0.00 0.00 0.00 88 1015.7
20260903043331 66 225 5.0 10.0 0.00 0.00 0.00 88 1015.7
20260903042325 65 221 5.0 11.0 0.00 0.00 0.00 88 1015.5
20260903041339 66 203 4.0 10.0 0.00 0.00 0.00 87 1015.6
20260903040354 66 244 5.0 13.0 0.00 0.00 0.00 87 1015.8
20260903035327 66 242 7.0 11.0 0.00 0.00 0.00 87 1015.9
20260903034326 66 219 7.0 14.0 0.00 0.00 0.00 87 1016.1
20260903033321 65 213 5.0 11.0 0.00 0.00 0.00 86 1016.3
20260903032344 65 249 4.0 10.0 0.00 0.00 0.00 87 1016.5
20260903031332 65 208 5.0 12.0 0.00 0.00 0.00 87 1016.2
20260903030325 65 235 5.0 11.0 0.00 0.00 0.00 87 1016.2
20260903025321 65 252 7.0 11.0 0.00 0.00 0.00 86 1016.1
20260903024349 66 225 4.0 15.0 0.00 0.00 0.00 86 1016.3
20260903023327 66 191 5.0 20.0 0.00 0.00 0.00 84 1016.5
20260903022323 66 219 9.0 19.0 0.00 0.00 0.00 83 1016.6
20260903021331 66 250 5.0 9.0 0.00 0.00 0.00 83 1016.6
20260903020337 66 236 4.0 10.0 0.00 0.00 0.00 83 1016.7
20260903015328 66 233 5.0 11.0 0.00 0.00 0.00 82 1016.7
20260903014320 66 222 6.0 12.0 0.00 0.00 0.00 82 1016.7
20260903013329 66 230 4.0 10.0 0.00 0.00 0.00 81 1016.8
20260903012321 66 224 5.0 10.0 0.00 0.00 0.00 81 1016.9
20260903011333 66 191 4.0 12.0 0.00 0.00 0.00 80 1016.9
20260903010326 66 219 5.0 9.0 0.00 0.00 0.00 80 1017.1
20260903005321 66 208 4.0 9.0 0.00 0.00 0.00 79 1017.2
20260903004336 66 230 4.0 12.0 0.00 0.00 0.00 79 1017.2
20260903003323 66 194 4.0 12.0 0.00 0.00 0.00 79 1017.5
20260903002337 66 258 7.0 12.0 0.00 0.00 0.00 79 1017.7
20260903001349 66 194 5.0 12.0 0.00 0.00 0.00 79 1017.8
20260903000347 66 233 6.0 9.0 0.00 0.00 0.00 79 1017.7
20260902235324 66 203 5.0 10.0 0.00 0.00 0.00 79 1017.7
20260902234338 65 235 5.0 9.0 0.00 0.00 0.00 79 1017.9
20260902233338 65 234 5.0 10.0 0.00 0.00 0.00 79 1017.9
20260902232327 65 244 5.0 10.0 0.00 0.00 0.00 80 1017.9
20260902231335 65 223 6.0 10.0 0.00 0.00 0.00 81 1018.1
20260902230326 64 213 3.0 8.0 0.00 0.00 0.00 82 1018.1
20260902225320 64 213 3.0 6.0 0.00 0.00 0.00 83 1018.2
20260902224346 64 224 3.0 5.0 0.00 0.00 0.00 83 1018.4
20260902223350 64 225 3.0 6.0 0.00 0.00 0.00 83 1018.5
20260902222403 64 227 2.0 5.0 0.00 0.00 0.00 83 1018.5
20260902221342 64 198 2.0 4.0 0.00 0.00 0.00 83 1018.6
20260902220345 64 194 2.0 6.0 0.00 0.00 0.00 82 1018.8